This is the latest recevied weather packets stored in our database for station/object KD7KCN-5. If no packets are shown the sender has not sent any weather packets the latest 10 day(s).
| Time | Temp. | Humidity | Pressure | Rain* | Wind** | Luminosity | Snow |
|---|---|---|---|---|---|---|---|
| 1777944710 | 13.89° C | 32% | 1008.5 hPa | 0 mm | - | 32 W/m² | - |
| 1777944110 | 14.44° C | 32% | 1008.5 hPa | 0 mm | - | 44 W/m² | - |
| 1777943511 | 15° C | 30% | 1008.6 hPa | 0 mm | - | 88 W/m² | - |
| 1777942910 | 15° C | 30% | 1008.6 hPa | 0 mm | - | 118 W/m² | - |
| 1777942310 | 15° C | 29% | 1008.5 hPa | 0 mm | - | 174 W/m² | - |
| 1777941710 | 15° C | 28% | 1008.4 hPa | 0 mm | - | 209 W/m² | - |
| 1777941114 | 15.56° C | 27% | 1008.5 hPa | 0 mm | - | 193 W/m² | - |
| 1777940511 | 15.56° C | 25% | 1008.4 hPa | 0 mm | - | 179 W/m² | - |
| 1777939910 | 16.11° C | 23% | 1008.3 hPa | 0 mm | - | 234 W/m² | - |
| 1777939313 | 16.11° C | 22% | 1008.1 hPa | 0 mm | - | 248 W/m² | - |
| 1777938710 | 16.11° C | 19% | 1008.1 hPa | 0 mm | - | 388 W/m² | - |
| 1777938111 | 16.11° C | 19% | 1008.1 hPa | 0 mm | - | 401 W/m² | - |
| 1777937511 | 16.11° C | 23% | 1008.3 hPa | 0 mm | - | 559 W/m² | - |
| 1777936910 | 15.56° C | 25% | 1007.9 hPa | 0 mm | - | 253 W/m² | - |
| 1777936310 | 15.56° C | 27% | 1008.1 hPa | 0 mm | - | 338 W/m² | - |
| 1777935712 | 15.56° C | 27% | 1008 hPa | 0 mm | - | 390 W/m² | - |
| 1777935110 | 16.11° C | 27% | 1007.8 hPa | 0 mm | - | 323 W/m² | - |
| 1777934512 | 16.67° C | 26% | 1007.5 hPa | 0 mm | - | 454 W/m² | - |
| 1777933910 | 16.11° C | 30% | 1008 hPa | 0 mm | - | 394 W/m² | - |
| 1777933313 | 16.11° C | 30% | 1008.5 hPa | 0 mm | - | 441 W/m² | - |
| 1777932710 | 16.67° C | 30% | 1008.7 hPa | 0 mm | - | 563 W/m² | - |
| 1777932111 | 16.67° C | 28% | 1008.8 hPa | 0 mm | - | 824 W/m² | - |
| 1777931511 | 16.67° C | 28% | 1008.8 hPa | 0 mm | - | 640 W/m² | - |
| 1777930910 | 16.67° C | 27% | 1008.9 hPa | 0 mm | - | 410 W/m² | - |
| 1777930310 | 16.67° C | 28% | 1009.1 hPa | 0 mm | - | 515 W/m² | - |
* Rain latest hour (hover to see other rain measurements)
** Current wind speed in m/s (hover to see current wind gust speed)